#timestamp,LO_Frequency,Hit,StdDev 
1562536815.3,286046998.1,N
1562536835.2,286047001.2,N
1562536855.0,286046998.5,N
1562536855.9,286046998.5,N
1562536875.8,286046998.9,N
1562536895.6,286047001.0,N
1562536915.4,286047001.1,N
1562536935.3,286047000.8,N
1562536955.1,286047000.5,N
1562536975.9,286046999.8,N
1562536995.7,286047000.2,N
1562537015.5,286047000.6,N
1562537035.4,286047002.0,N
1562537055.2,286047003.8,Y
1562537075.0,286047001.6,P
1562537076.0,286047001.6,N
1562537095.8,286047001.4,N
1562537115.6,286047000.1,N
1562537135.5,286047002.6,Y
1562537155.3,286047000.2,P
1562537175.1,286047002.7,P
1562537195.9,286046998.5,N
1562537215.7,286047002.2,N
1562537235.6,286046998.4,N
1562537255.4,286046998.3,N
1562537275.2,286047000.5,N
1562537295.2,286046998.6,N
1562537315.9,286046998.5,N
1562537335.7,286046998.9,N
1562537355.6,286046999.3,N
1562537375.4,286046998.8,N
1562537395.2,286046998.4,N
1562537415.1,286046998.8,N
1562537416.0,286046998.8,N
1562537435.8,286046999.3,N
1562537455.7,286046997.7,N
1562537475.5,286046996.5,N
1562537495.3,286046996.9,N
1562537515.2,286046999.6,N
1562537535.0,286046996.5,N
1562537535.9,286046996.5,N
1562537555.8,286046999.5,N
1562537575.6,286046997.3,N
1562537595.4,286046997.1,N
1562537615.3,286046997.1,N
1562537635.1,286046996.9,N
1562537655.9,286046996.6,N
1562537675.7,286046996.7,N
1562537695.5,286046996.7,N
1562537715.3,286046997.8,N
1562537735.2,286046999.6,N
1562537755.0,286046997.0,N
1562537755.9,286046997.0,N
1562537775.8,286046997.2,N
1562537795.6,286046997.0,N
1562537815.4,286046997.2,N
1562537835.3,286046996.7,Y
1562537855.1,286046998.6,P
1562537875.8,286046999.2,N
1562537895.7,286046996.8,P
1562537915.5,286046997.0,Y
1562537935.4,286047000.7,P
1562537955.2,286046998.6,N
1562537975.0,286046998.9,N
1562537976.0,286046998.9,N
1562537995.8,286046999.1,N
1562538015.6,286046996.5,Y
1562538035.5,286046999.4,P
1562538055.3,286046996.7,P
1562538075.2,286046996.8,N
1562538095.9,286046996.7,N
1562538115.7,286046996.9,N
1562538135.6,286046997.7,N
1562538155.4,286046997.7,N
1562538175.2,286046998.0,N
1562538195.1,286046997.6,N
1562538196.0,286046997.6,N
1562538215.8,286046999.5,N
1562538235.7,286046999.1,N
1562538255.5,286046999.6,N
1562538275.3,286046996.9,N
1562538295.2,286046997.7,N
1562538315.0,286046994.9,Y
1562538315.9,286046994.9,P
1562538335.8,286046998.3,N
1562538355.6,286046998.1,N
1562538375.4,286047001.0,N
1562538395.3,286047000.9,N
1562538415.1,286047001.0,N
1562538435.8,286047000.6,N
1562538455.7,286046999.7,N
1562538475.5,286047002.8,N
1562538495.4,286047000.1,N
1562538515.2,286047000.0,N
1562538535.0,286046998.5,N
1562538535.9,286046998.5,N
1562538555.8,286047000.4,N
1562538575.6,286047001.9,N
1562538595.4,286047002.5,N
1562538615.3,286047001.6,N
1562538635.1,286047001.4,N
1562538655.9,286047002.7,N
1562538675.7,286047002.3,N
1562538695.5,286047002.4,N
1562538715.4,286046999.8,N
1562538735.2,286047002.3,N
1562538755.1,286047002.7,N
1562538756.0,286047002.7,N
1562538775.8,286047002.7,N
1562538795.6,286047000.6,N
1562538815.5,286047001.2,N
1562538835.3,286047000.2,N
1562538855.1,286047002.6,N
1562538875.9,286047004.3,N
1562538895.7,286047001.7,N
1562538915.6,286047002.0,N
1562538935.4,286047002.8,N
1562538955.2,286047000.1,N
1562538975.1,286047002.5,N
1562538976.0,286047002.5,N
1562538995.8,286047001.9,N
1562539015.7,286047001.9,N
1562539035.5,286047002.5,N
1562539055.3,286047000.0,N
1562539075.2,286047002.5,N
1562539095.0,286047002.7,N
1562539095.9,286047002.7,N
1562539115.8,286047000.2,N
1562539135.6,286047000.3,N
1562539155.4,286047002.6,N
1562539175.3,286047002.2,N
1562539195.1,286047004.2,Y
1562539215.8,286047000.2,P
1562539235.7,286047000.7,N
1562539255.5,286047000.1,N
1562539275.4,286046999.8,N
1562539295.2,286046999.8,N
1562539315.0,286047000.0,N
1562539315.9,286047000.0,N
1562539335.8,286047000.5,N
1562539355.6,286047002.5,Y
1562539375.5,286047000.1,P
1562539395.3,286047002.7,P
1562539415.1,286047001.3,N
1562539435.9,286047000.3,N
1562539455.7,286047001.0,N
1562539475.6,286047000.7,N
1562539495.4,286047001.2,N
1562539515.2,286047000.2,N
1562539535.1,286046999.8,N
1562539536.0,286046999.8,N
1562539555.8,286047001.7,N
1562539575.6,286047003.9,Y
1562539595.5,286047003.9,P
1562539615.3,286047004.2,N
1562539635.2,286047002.1,N
1562539655.9,286047002.8,N
1562539675.7,286047001.8,N
1562539695.6,286047001.8,N
1562539715.4,286047002.5,N
1562539735.3,286047002.7,N
1562539755.1,286047001.9,N
1562539756.0,286047001.9,N
1562539775.8,286047000.3,N
1562539795.7,286047002.4,N
1562539815.5,286047002.2,N
1562539835.3,286047001.4,N
1562539855.3,286047002.5,N
1562539875.1,286047002.6,N
1562539895.8,286047001.3,N
1562539915.7,286047002.7,N
1562539935.5,286047002.6,N
1562539955.4,286047001.4,N
1562539975.2,286047002.0,N
1562539995.0,286047001.8,N
1562539995.9,286047001.8,N
1562540015.8,286047002.3,N
1562540035.6,286047002.8,Y
1562540055.5,286046998.5,P
1562540075.3,286046999.9,N
1562540095.1,286047000.4,N
1562540115.9,286046999.9,N
1562540135.7,286047001.2,N
1562540155.5,286047001.2,N
1562540175.4,286047000.3,N
1562540195.2,286047002.3,N
1562540215.1,286047002.0,N
1562540216.0,286047002.0,N
1562540235.8,286047000.1,N
1562540255.6,286047002.8,N
1562540275.5,286047002.7,N
1562540295.3,286047001.9,N
1562540315.2,286047002.0,N
1562540335.0,286047002.3,N
1562540335.9,286047002.3,N
1562540355.7,286047001.9,N
1562540375.6,286047002.3,N
1562540395.4,286047002.0,N
